N7NKE Weather Reports


Display with metric or nautical units.
time (UTC)temp
F
wind
direction
speed
MPH
gust
MPH
rain 1hr
in
rain 24hr
in
rain mn
in
humidity
%
barometer
mb
20260506135005 55 338 0.0 2.0 0.00 0.00 0.00 88 1019.5
20260506134506 55 338 0.0 2.0 0.00 0.00 0.00 87 1019.5
20260506134005 55 338 1.0 2.0 0.00 0.00 0.00 87 1019.5
20260506133505 55 327 2.0 2.0 0.00 0.00 0.00 87 1019.6
20260506133006 55 327 2.0 3.0 0.00 0.00 0.00 88 1019.6
20260506132505 55 327 1.0 2.0 0.00 0.00 0.00 88 1019.6
20260506131005 55 328 2.0 3.0 0.00 0.00 0.00 88 1019.5
20260506130505 55 335 2.0 3.0 0.00 0.00 0.00 88 1019.4
20260506130005 55 330 1.0 3.0 0.00 0.00 0.00 88 1019.4
20260506125505 54 355 2.0 3.0 0.00 0.00 0.00 88 1019.3
20260506125005 54 337 1.0 2.0 0.00 0.00 0.00 88 1019.3
20260506124505 54 352 0.0 1.0 0.00 0.00 0.00 88 1019.1
20260506124005 54 353 1.0 2.0 0.00 0.00 0.00 88 1019.1
20260506123505 54 344 1.0 2.0 0.00 0.00 0.00 88 1019.0
20260506122506 55 24 1.0 2.0 0.00 0.00 0.00 88 1019.1
20260506122005 55 8 1.0 2.0 0.00 0.00 0.00 87 1018.9
20260506121506 55 21 1.0 2.0 0.00 0.00 0.00 87 1019.0
20260506121005 55 19 1.0 3.0 0.00 0.00 0.00 87 1018.9
20260506115505 56 13 1.0 2.0 0.00 0.00 0.00 86 1019.0
20260506115006 56 7 2.0 3.0 0.00 0.00 0.00 86 1018.9
20260506113505 57 350 1.0 2.0 0.00 0.00 0.00 86 1018.8
20260506113005 57 336 0.0 1.0 0.00 0.00 0.00 86 1018.9
20260506112005 57 342 1.0 2.0 0.00 0.00 0.00 85 1018.8
20260506111005 57 0 1.0 2.0 0.00 0.00 0.00 85 1018.7
20260506110505 57 320 2.0 6.0 0.00 0.00 0.00 86 1018.8
20260506110005 57 323 2.0 3.0 0.00 0.00 0.00 86 1018.7
20260506105505 57 0 1.0 3.0 0.00 0.00 0.00 86 1018.6
20260506105005 57 9 3.0 7.0 0.00 0.00 0.00 86 1018.5
20260506104505 57 337 1.0 3.0 0.00 0.00 0.00 87 1018.5
20260506104005 57 19 0.0 2.0 0.00 0.00 0.00 87 1018.3
20260506103505 57 7 1.0 2.0 0.00 0.00 0.00 87 1018.2
20260506103006 57 18 0.0 2.0 0.00 0.00 0.00 87 1018.3
20260506102505 57 12 0.0 2.0 0.00 0.00 0.00 87 1018.2
20260506102005 57 17 0.0 0.0 0.00 0.00 0.00 87 1018.1
20260506101505 57 17 1.0 2.0 0.00 0.00 0.00 87 1018.1
20260506101005 57 16 0.0 2.0 0.00 0.00 0.00 87 1018.0
20260506100505 57 11 1.0 1.0 0.00 0.00 0.00 87 1017.9
20260506095505 57 0 0.0 2.0 0.00 0.00 0.00 87 1017.8
20260506095005 57 0 0.0 1.0 0.00 0.00 0.00 87 1017.7
20260506094505 57 0 0.0 2.0 0.00 0.00 0.00 87 1017.7
20260506094005 57 26 0.0 2.0 0.00 0.00 0.00 87 1017.8
20260506093505 57 32 2.0 2.0 0.00 0.00 0.00 87 1017.7
20260506093005 57 34 1.0 2.0 0.00 0.00 0.00 87 1017.7
20260506092005 57 34 0.0 2.0 0.00 0.00 0.00 87 1017.7
20260506091005 57 14 1.0 2.0 0.00 0.00 0.00 87 1017.7
20260506090505 57 13 0.0 2.0 0.00 0.00 0.00 87 1017.7
20260506090006 57 13 0.0 0.0 0.00 0.00 0.00 87 1017.7
20260506085505 57 13 0.0 2.0 0.00 0.00 0.00 87 1017.6
20260506085005 57 13 0.0 2.0 0.00 0.00 0.00 87 1017.7
20260506082505 58 6 1.0 2.0 0.00 0.00 0.00 87 1017.6
20260506082006 58 6 0.0 2.0 0.00 0.00 0.00 87 1017.6
20260506081505 58 6 1.0 2.0 0.00 0.00 0.00 87 1017.6
20260506081005 58 6 0.0 2.0 0.00 0.00 0.00 86 1017.6
20260506080504 58 6 1.0 2.0 0.00 0.00 0.00 87 1017.6
20260506073505 58 71 0.0 0.0 0.00 0.00 0.00 86 1017.3
20260506073005 58 71 0.0 0.0 0.00 0.00 0.00 86 1017.2
20260506072505 58 71 0.0 0.0 0.00 0.00 0.00 86 1017.2
20260506072005 58 71 0.0 0.0 0.00 0.00 0.00 86 1017.2
20260506071505 58 71 0.0 0.0 0.00 0.00 0.00 86 1017.1
20260506071005 59 71 0.0 0.0 0.00 0.00 0.00 86 1017.1
20260506061505 59 71 0.0 0.0 0.00 0.00 0.00 85 1016.8
20260506061005 59 71 0.0 0.0 0.00 0.00 0.00 85 1016.8
20260506060504 59 71 0.0 0.0 0.00 0.00 0.00 85 1016.8
20260506050504 59 71 0.0 0.0 0.00 0.00 0.00 83 1016.5
20260506045005 59 71 0.0 0.0 0.00 0.00 0.00 83 1016.5
20260506044505 59 71 0.0 0.0 0.00 0.00 0.00 84 1016.5
20260506043505 58 71 0.0 0.0 0.00 0.00 0.00 84 1016.3
20260506043005 58 71 0.0 0.0 0.00 0.00 0.00 84 1016.3
20260506042504 58 71 0.0 0.0 0.00 0.00 0.00 84 1016.3
20260506041505 58 71 0.0 0.0 0.00 0.00 0.00 83 1016.2
20260506041005 58 71 0.0 0.0 0.00 0.00 0.00 83 1016.2
20260506040504 58 71 0.0 0.0 0.00 0.00 0.00 83 1016.1
20260506040006 58 71 0.0 0.0 0.00 0.00 0.00 83 1016.0
20260506035505 59 71 0.0 0.0 0.00 0.00 0.00 82 1016.0
20260506034505 59 71 0.0 0.0 0.00 0.00 0.00 82 1015.8
20260506034005 59 71 0.0 1.0 0.00 0.00 0.00 82 1015.8
20260506033505 60 70 1.0 1.0 0.00 0.00 0.00 81 1015.7
20260506033007 60 70 1.0 1.0 0.00 0.00 0.00 81 1015.6
20260506032504 60 70 1.0 2.0 0.00 0.00 0.00 80 1015.6
20260506032005 61 71 1.0 2.0 0.00 0.00 0.00 80 1015.5
20260506031506 61 71 0.0 1.0 0.00 0.00 0.00 79 1015.5
20260506031005 62 70 1.0 2.0 0.00 0.00 0.00 79 1015.4
20260506030504 62 71 0.0 1.0 0.00 0.00 0.00 78 1015.4
20260506030005 63 0 0.0 0.0 0.00 0.00 0.00 77 1015.4
20260506025505 63 0 0.0 0.0 0.00 0.00 0.00 76 1015.3
20260506025005 64 0 0.0 2.0 0.00 0.00 0.00 75 1015.2
20260506024505 65 71 0.0 2.0 0.00 0.00 0.00 74 1015.2
20260506024005 65 71 1.0 2.0 0.00 0.00 0.00 74 1015.1
20260506023505 66 71 1.0 1.0 0.00 0.00 0.00 73 1015.1
20260506023005 67 70 1.0 2.0 0.00 0.00 0.00 71 1015.0
20260506022505 67 70 1.0 2.0 0.00 0.00 0.00 71 1015.0
20260506022005 67 70 1.0 1.0 0.00 0.00 0.00 70 1015.0
20260506021505 67 70 1.0 2.0 0.00 0.00 0.00 70 1015.0
20260506020504 67 52 1.0 2.0 0.00 0.00 0.00 69 1015.0
20260506020005 67 47 2.0 2.0 0.00 0.00 0.00 69 1015.0
20260506015504 67 50 2.0 3.0 0.00 0.00 0.00 68 1014.9
20260506015005 67 36 1.0 5.0 0.00 0.00 0.00 68 1015.0
20260506014505 68 70 2.0 5.0 0.00 0.00 0.00 68 1015.0
20260506014005 68 350 1.0 1.0 0.00 0.00 0.00 68 1014.9
20260506013504 68 40 1.0 3.0 0.00 0.00 0.00 67 1014.9
20260506012504 68 8 1.0 2.0 0.00 0.00 0.00 68 1015.1
20260506012005 67 121 1.0 3.0 0.00 0.00 0.00 65 1015.1
20260506011506 68 50 3.0 6.0 0.00 0.00 0.00 68 1015.1
20260506011005 67 325 1.0 2.0 0.00 0.00 0.00 68 1015.1
20260506010006 66 36 2.0 2.0 0.00 0.00 0.00 69 1015.2
20260506005505 66 89 2.0 3.0 0.00 0.00 0.00 69 1015.2
20260506005005 66 77 3.0 7.0 0.00 0.00 0.00 68 1015.1
20260506004505 67 66 3.0 5.0 0.00 0.00 0.00 69 1015.1
20260506004004 67 51 2.0 7.0 0.00 0.00 0.00 69 1015.1
20260506003504 66 69 2.0 6.0 0.00 0.00 0.00 68 1015.2
20260506003004 67 14 1.0 2.0 0.00 0.00 0.00 69 1015.2
20260506002505 67 12 1.0 5.0 0.00 0.00 0.00 68 1015.2
20260506002005 67 88 4.0 8.0 0.00 0.00 0.00 68 1015.2
20260506001004 67 82 2.0 2.0 0.00 0.00 0.00 68 1015.3
20260506000505 67 78 3.0 5.0 0.00 0.00 0.00 68 1015.3
20260506000005 67 352 1.0 3.0 0.00 0.00 0.00 68 1015.4
20260505235505 66 30 2.0 8.0 0.00 0.00 0.00 68 1015.4
20260505234505 66 78 2.0 6.0 0.00 0.00 0.00 69 1015.5
20260505234005 66 17 2.0 3.0 0.00 0.00 0.00 69 1015.5
20260505233505 66 121 1.0 3.0 0.00 0.00 0.00 68 1015.5
20260505233005 66 55 3.0 5.0 0.00 0.00 0.00 70 1015.6
20260505232505 65 119 3.0 5.0 0.00 0.00 0.00 69 1015.7
20260505232004 65 97 2.0 5.0 0.00 0.00 0.00 72 1015.8
20260505231504 64 54 4.0 8.0 0.00 0.00 0.00 71 1015.8
20260505231004 64 239 1.0 3.0 0.00 0.00 0.00 71 1015.8
20260505230505 64 57 3.0 9.0 0.00 0.00 0.00 72 1015.8
20260505230005 64 93 3.0 6.0 0.00 0.00 0.00 72 1015.8
20260505225505 64 68 5.0 8.0 0.00 0.00 0.00 72 1015.9
20260505225004 64 5 1.0 5.0 0.00 0.00 0.00 72 1015.9
20260505224505 64 88 2.0 5.0 0.00 0.00 0.00 72 1016.0
20260505224005 64 326 2.0 5.0 0.00 0.00 0.00 72 1016.0
20260505223505 64 69 1.0 3.0 0.00 0.00 0.00 71 1016.0
20260505223005 64 82 2.0 7.0 0.00 0.00 0.00 72 1016.0
20260505222505 63 43 1.0 5.0 0.00 0.00 0.00 73 1016.0
20260505222005 63 68 1.0 5.0 0.00 0.00 0.00 73 1016.1
20260505221506 63 57 2.0 6.0 0.00 0.00 0.00 73 1016.1
20260505221005 63 345 2.0 5.0 0.00 0.00 0.00 72 1016.1
20260505220504 63 86 1.0 3.0 0.00 0.00 0.00 73 1016.1
20260505220004 63 1 2.0 8.0 0.00 0.00 0.00 73 1016.2
20260505215505 63 71 2.0 3.0 0.00 0.00 0.00 74 1016.2
20260505215005 63 68 2.0 5.0 0.00 0.00 0.00 74 1016.2
20260505214504 63 22 2.0 5.0 0.00 0.00 0.00 74 1016.2
20260505214005 63 12 2.0 7.0 0.00 0.00 0.00 73 1016.2
20260505213505 63 338 1.0 2.0 0.00 0.00 0.00 74 1016.2
20260505213005 62 359 2.0 3.0 0.00 0.00 0.00 74 1016.3
20260505212505 62 313 2.0 5.0 0.00 0.00 0.00 76 1016.3
20260505212005 62 349 2.0 5.0 0.00 0.00 0.00 76 1016.3
20260505211505 62 2 2.0 5.0 0.00 0.00 0.00 75 1016.3
20260505211004 62 8 3.0 6.0 0.00 0.00 0.00 76 1016.3
20260505210505 62 70 3.0 8.0 0.00 0.00 0.00 76 1016.4
20260505210006 62 343 2.0 5.0 0.00 0.00 0.00 76 1016.4
20260505205504 61 341 3.0 5.0 0.00 0.00 0.00 75 1016.4
20260505205005 61 4 3.0 9.0 0.00 0.00 0.00 75 1016.5
20260505204505 61 12 2.0 5.0 0.00 0.00 0.00 76 1016.5
20260505204004 61 329 2.0 6.0 0.00 0.00 0.00 75 1016.6
20260505203505 61 334 3.0 6.0 0.00 0.00 0.00 75 1016.6
20260505203005 61 319 1.0 3.0 0.00 0.00 0.00 77 1016.7
20260505202505 61 324 2.0 3.0 0.00 0.00 0.00 77 1016.6
20260505202004 60 351 1.0 5.0 0.00 0.00 0.00 78 1016.7
20260505201505 60 0 2.0 5.0 0.00 0.00 0.00 78 1016.7
20260505201004 59 0 2.0 3.0 0.00 0.00 0.00 79 1016.7
20260505200005 59 0 2.0 3.0 0.00 0.00 0.00 79 1016.9
20260505195504 59 0 2.0 3.0 0.00 0.00 0.00 80 1016.8
20260505194505 59 0 1.0 2.0 0.00 0.00 0.00 81 1016.8
20260505194004 58 0 1.0 3.0 0.00 0.00 0.00 81 1016.8
20260505193505 58 0 2.0 5.0 0.00 0.00 0.00 81 1016.9
20260505192504 59 0 2.0 3.0 0.00 0.00 0.00 80 1016.9
20260505192005 59 0 1.0 3.0 0.00 0.00 0.00 80 1016.8
20260505191005 59 0 2.0 5.0 0.00 0.00 0.00 81 1016.9
20260505190005 58 0 2.0 3.0 0.00 0.00 0.00 83 1016.8
20260505185505 58 75 2.0 5.0 0.00 0.00 0.00 83 1016.9
20260505185005 57 75 1.0 2.0 0.00 0.00 0.00 84 1016.8
20260505184505 57 11 1.0 2.0 0.00 0.00 0.00 84 1016.8
20260505184005 57 0 1.0 3.0 0.00 0.00 0.00 83 1016.8
20260505183505 57 351 2.0 3.0 0.00 0.00 0.00 84 1016.8
20260505183005 57 11 2.0 3.0 0.00 0.00 0.00 84 1016.7
20260505182504 57 1 2.0 3.0 0.00 0.00 0.00 84 1016.7
20260505181504 57 0 1.0 2.0 0.00 0.00 0.00 85 1016.8
20260505181004 57 0 1.0 2.0 0.00 0.00 0.00 85 1016.7
20260505180505 57 331 1.0 2.0 0.00 0.00 0.00 85 1016.7
20260505180005 57 0 2.0 3.0 0.00 0.00 0.00 85 1016.6
20260505175505 57 0 3.0 5.0 0.00 0.00 0.00 85 1016.6
20260505175004 57 0 1.0 2.0 0.00 0.00 0.00 86 1016.6
20260505174505 57 0 1.0 2.0 0.00 0.00 0.00 86 1016.6
20260505174005 56 0 0.0 2.0 0.00 0.00 0.00 86 1016.7
20260505173504 56 0 0.0 1.0 0.00 0.00 0.00 87 1016.6
20260505173005 56 0 1.0 2.0 0.00 0.00 0.00 87 1016.6
20260505172504 56 11 1.0 2.0 0.00 0.00 0.00 88 1016.6
20260505172005 56 68 0.0 2.0 0.00 0.00 0.00 88 1016.4
20260505171505 55 0 0.0 2.0 0.00 0.00 0.00 88 1016.5
20260505171005 55 0 1.0 2.0 0.00 0.00 0.00 89 1016.5
20260505170005 55 0 0.0 2.0 0.00 0.00 0.00 89 1016.4
20260505165504 55 76 0.0 2.0 0.00 0.00 0.00 89 1016.4
20260505164504 54 47 0.0 2.0 0.00 0.00 0.00 90 1016.3
20260505164004 54 53 1.0 2.0 0.00 0.00 0.00 90 1016.3
20260505162504 54 90 1.0 2.0 0.00 0.00 0.00 90 1016.3
20260505162004 54 90 1.0 2.0 0.00 0.00 0.00 90 1016.2
20260505160504 54 90 1.0 2.0 0.00 0.00 0.00 90 1016.2
20260505153005 54 90 1.0 1.0 0.00 0.00 0.00 90 1016.1
20260505152504 54 90 1.0 2.0 0.00 0.00 0.00 90 1016.1
20260505152004 54 90 0.0 2.0 0.00 0.00 0.00 89 1016.0
20260505151505 54 90 1.0 2.0 0.00 0.00 0.00 89 1016.0
20260505151004 54 90 0.0 2.0 0.00 0.00 0.00 89 1016.0
20260505150504 54 90 1.0 1.0 0.00 0.00 0.00 89 1015.9
20260505140504 54 136 0.0 0.0 0.00 0.00 0.00 88 1015.5